Year,Month,Day,Hour,Minute,Value (Times are PST for temperature in C)
2014,08,12,00,00,13.80
2014,08,12,00,01,13.80
2014,08,12,00,02,13.80
2014,08,12,00,03,13.80
2014,08,12,00,04,13.80
2014,08,12,00,05,13.80
2014,08,12,00,06,13.80
2014,08,12,00,07,13.80
2014,08,12,00,08,13.80
2014,08,12,00,09,13.80
2014,08,12,00,10,13.70
2014,08,12,00,11,13.70
2014,08,12,00,12,13.70
2014,08,12,00,13,13.70
2014,08,12,00,14,13.70
2014,08,12,00,15,13.70
2014,08,12,00,16,13.60
2014,08,12,00,17,13.60
2014,08,12,00,18,13.60
2014,08,12,00,19,13.60
2014,08,12,00,20,13.60
2014,08,12,00,21,13.60
2014,08,12,00,22,13.60
2014,08,12,00,23,13.60
2014,08,12,00,24,13.60
2014,08,12,00,25,13.60
2014,08,12,00,26,13.60
2014,08,12,00,27,13.60
2014,08,12,00,28,13.60
2014,08,12,00,29,13.70
2014,08,12,00,30,13.70
2014,08,12,00,31,13.70
2014,08,12,00,32,13.70
2014,08,12,00,33,13.70
2014,08,12,00,34,13.80
2014,08,12,00,35,13.80
2014,08,12,00,36,13.80
2014,08,12,00,37,13.80
2014,08,12,00,38,13.80
2014,08,12,00,39,13.90
2014,08,12,00,40,13.90
2014,08,12,00,41,13.90
2014,08,12,00,42,13.90
2014,08,12,00,43,13.90
2014,08,12,00,44,13.90
2014,08,12,00,45,13.90
2014,08,12,00,46,13.90
2014,08,12,00,47,13.90
2014,08,12,00,48,13.90
2014,08,12,00,49,14.00
2014,08,12,00,50,14.00
2014,08,12,00,51,14.00
2014,08,12,00,52,14.00
2014,08,12,00,53,14.00
2014,08,12,00,54,14.00
2014,08,12,00,55,14.00
2014,08,12,00,56,14.00
2014,08,12,00,57,14.10
2014,08,12,00,58,14.10
2014,08,12,00,59,14.00
2014,08,12,01,00,14.00
2014,08,12,01,01,14.00
2014,08,12,01,02,14.00
2014,08,12,01,03,14.00
2014,08,12,01,04,14.00
2014,08,12,01,05,14.00
2014,08,12,01,06,14.00
2014,08,12,01,07,14.00
2014,08,12,01,08,14.00
2014,08,12,01,09,14.00
2014,08,12,01,10,14.00
2014,08,12,01,11,14.00
2014,08,12,01,12,14.00
2014,08,12,01,13,14.00
2014,08,12,01,14,14.00
2014,08,12,01,15,14.00
2014,08,12,01,16,14.00
2014,08,12,01,17,14.00
2014,08,12,01,18,14.00
2014,08,12,01,19,14.00
2014,08,12,01,20,14.00
2014,08,12,01,21,13.90
2014,08,12,01,22,13.90
2014,08,12,01,23,14.00
2014,08,12,01,24,14.00
2014,08,12,01,25,14.00
2014,08,12,01,26,14.00
2014,08,12,01,27,14.00
2014,08,12,01,28,14.00
2014,08,12,01,29,14.00
2014,08,12,01,30,14.00
2014,08,12,01,31,14.00
2014,08,12,01,32,14.00
2014,08,12,01,33,14.00
2014,08,12,01,34,14.00
2014,08,12,01,35,14.00
2014,08,12,01,36,14.00
2014,08,12,01,37,14.00
2014,08,12,01,38,14.00
2014,08,12,01,39,14.00
2014,08,12,01,40,14.00
2014,08,12,01,41,14.00
2014,08,12,01,42,14.00
2014,08,12,01,43,14.00
2014,08,12,01,44,13.90
2014,08,12,01,45,13.90
2014,08,12,01,46,13.90
2014,08,12,01,47,13.90
2014,08,12,01,48,13.90
2014,08,12,01,49,13.90
2014,08,12,01,50,13.90
2014,08,12,01,51,13.90
2014,08,12,01,52,13.90
2014,08,12,01,53,13.90
2014,08,12,01,54,13.90
2014,08,12,01,55,13.90
2014,08,12,01,56,13.90
2014,08,12,01,57,14.00
2014,08,12,01,58,14.00
2014,08,12,01,59,14.00
2014,08,12,02,00,14.00
2014,08,12,02,01,14.00
2014,08,12,02,02,14.00
2014,08,12,02,03,14.00
2014,08,12,02,04,14.00
2014,08,12,02,05,14.00
2014,08,12,02,06,14.00
2014,08,12,02,07,14.00
2014,08,12,02,08,14.00
2014,08,12,02,09,14.00
2014,08,12,02,10,14.00
2014,08,12,02,11,14.00
2014,08,12,02,12,14.00
2014,08,12,02,13,14.00
2014,08,12,02,14,14.00
2014,08,12,02,15,14.00
2014,08,12,02,16,13.90
2014,08,12,02,17,13.90
2014,08,12,02,18,13.90
2014,08,12,02,19,13.90
2014,08,12,02,20,13.90
2014,08,12,02,21,13.90
2014,08,12,02,22,13.90
2014,08,12,02,23,13.80
2014,08,12,02,24,13.70
2014,08,12,02,25,13.60
2014,08,12,02,26,13.50
2014,08,12,02,27,13.50
2014,08,12,02,28,13.40
2014,08,12,02,29,13.40
2014,08,12,02,30,13.30
2014,08,12,02,31,13.30
2014,08,12,02,32,13.30
2014,08,12,02,33,13.20
2014,08,12,02,34,13.20
2014,08,12,02,35,13.20
2014,08,12,02,36,13.10
2014,08,12,02,37,13.10
2014,08,12,02,38,13.00
2014,08,12,02,39,12.90
2014,08,12,02,40,12.90
2014,08,12,02,41,12.80
2014,08,12,02,42,12.80
2014,08,12,02,43,12.80
2014,08,12,02,44,12.80
2014,08,12,02,45,12.80
2014,08,12,02,46,12.70
2014,08,12,02,47,12.70
2014,08,12,02,48,12.60
2014,08,12,02,49,12.60
2014,08,12,02,50,12.50
2014,08,12,02,51,12.50
2014,08,12,02,52,12.40
2014,08,12,02,53,12.40
2014,08,12,02,54,12.40
2014,08,12,02,55,12.40
2014,08,12,02,56,12.40
2014,08,12,02,57,12.30
2014,08,12,02,58,12.30
2014,08,12,02,59,12.30
2014,08,12,03,00,12.30
2014,08,12,03,01,12.20
2014,08,12,03,02,12.20
2014,08,12,03,03,12.20
2014,08,12,03,04,12.10
2014,08,12,03,05,12.10
2014,08,12,03,06,12.10
2014,08,12,03,07,12.10
2014,08,12,03,08,12.10
2014,08,12,03,09,12.10
2014,08,12,03,10,12.10
2014,08,12,03,11,12.10
2014,08,12,03,12,12.10
2014,08,12,03,13,12.10
2014,08,12,03,14,12.00
2014,08,12,03,15,12.00
2014,08,12,03,16,12.00
2014,08,12,03,17,12.00
2014,08,12,03,18,12.00
2014,08,12,03,19,12.00
2014,08,12,03,20,12.00
2014,08,12,03,21,12.00
2014,08,12,03,22,12.00
2014,08,12,03,23,12.00
2014,08,12,03,24,12.00
2014,08,12,03,25,12.00
2014,08,12,03,26,12.00
2014,08,12,03,27,12.00
2014,08,12,03,28,12.00
2014,08,12,03,29,12.00
2014,08,12,03,30,12.00
2014,08,12,03,31,12.00
2014,08,12,03,32,12.00
2014,08,12,03,33,12.00
2014,08,12,03,34,12.00
2014,08,12,03,35,12.00
2014,08,12,03,36,12.00
2014,08,12,03,37,12.00
2014,08,12,03,38,12.00
2014,08,12,03,39,12.10
2014,08,12,03,40,12.00
2014,08,12,03,41,12.10
2014,08,12,03,42,12.10
2014,08,12,03,43,12.10
2014,08,12,03,44,12.10
2014,08,12,03,45,12.10
2014,08,12,03,46,12.10
2014,08,12,03,47,12.10
2014,08,12,03,48,12.10
2014,08,12,03,49,12.10
2014,08,12,03,50,12.10
2014,08,12,03,51,12.10
2014,08,12,03,52,12.10
2014,08,12,03,53,12.10
2014,08,12,03,54,12.10
2014,08,12,03,55,12.10
2014,08,12,03,56,12.10
2014,08,12,03,57,12.10
2014,08,12,03,58,12.10
2014,08,12,03,59,12.10
2014,08,12,04,00,12.10
2014,08,12,04,01,12.10
2014,08,12,04,02,12.10
2014,08,12,04,03,12.10
2014,08,12,04,04,12.10
2014,08,12,04,05,12.10
2014,08,12,04,06,12.10
2014,08,12,04,07,12.10
2014,08,12,04,08,12.10
2014,08,12,04,09,12.10
2014,08,12,04,10,12.20
2014,08,12,04,11,12.20
2014,08,12,04,12,12.20
2014,08,12,04,13,12.20
2014,08,12,04,14,12.20
2014,08,12,04,15,12.20
2014,08,12,04,16,12.20
2014,08,12,04,17,12.20
2014,08,12,04,18,12.20
2014,08,12,04,19,12.20
2014,08,12,04,20,12.20
2014,08,12,04,21,12.20
2014,08,12,04,22,12.20
2014,08,12,04,23,12.20
2014,08,12,04,24,12.30
2014,08,12,04,25,12.30
2014,08,12,04,26,12.30
2014,08,12,04,27,12.30
2014,08,12,04,28,12.30
2014,08,12,04,29,12.30
2014,08,12,04,30,12.30
2014,08,12,04,31,12.30
2014,08,12,04,32,12.30
2014,08,12,04,33,12.30
2014,08,12,04,34,12.30
2014,08,12,04,35,12.30
2014,08,12,04,36,12.30
2014,08,12,04,37,12.30
2014,08,12,04,38,12.30
2014,08,12,04,39,12.30
2014,08,12,04,40,12.40
2014,08,12,04,41,12.40
2014,08,12,04,42,12.50
2014,08,12,04,43,12.50
2014,08,12,04,44,12.50
2014,08,12,04,45,12.60
2014,08,12,04,46,12.60
2014,08,12,04,47,12.60
2014,08,12,04,48,12.70
2014,08,12,04,49,12.70
2014,08,12,04,50,12.70
2014,08,12,04,51,12.70
2014,08,12,04,52,12.70
2014,08,12,04,53,12.70
2014,08,12,04,54,12.70
2014,08,12,04,55,12.80
2014,08,12,04,56,12.80
2014,08,12,04,57,12.80
2014,08,12,04,58,12.80
2014,08,12,04,59,12.80
2014,08,12,05,00,12.80
2014,08,12,05,01,12.80
2014,08,12,05,02,12.80
2014,08,12,05,03,12.80
2014,08,12,05,04,12.80
2014,08,12,05,05,12.80
2014,08,12,05,06,12.80
2014,08,12,05,07,12.80
2014,08,12,05,08,12.80
2014,08,12,05,09,12.80
2014,08,12,05,10,12.90
2014,08,12,05,11,12.90
2014,08,12,05,12,12.90
2014,08,12,05,13,12.90
2014,08,12,05,14,12.90
2014,08,12,05,15,12.90
2014,08,12,05,16,12.90
2014,08,12,05,17,12.90
2014,08,12,05,18,12.90
2014,08,12,05,19,12.90
2014,08,12,05,20,12.90
2014,08,12,05,21,12.90
2014,08,12,05,22,12.90
2014,08,12,05,23,12.80
2014,08,12,05,24,12.80
2014,08,12,05,25,12.80
2014,08,12,05,26,12.80
2014,08,12,05,27,12.80
2014,08,12,05,28,12.80
2014,08,12,05,29,12.80
2014,08,12,05,30,12.80
2014,08,12,05,31,12.80
2014,08,12,05,32,12.80
2014,08,12,05,33,12.80
2014,08,12,05,34,12.80
2014,08,12,05,35,12.80
2014,08,12,05,36,12.80
2014,08,12,05,37,12.80
2014,08,12,05,38,12.80
2014,08,12,05,39,12.80
2014,08,12,05,40,12.80
2014,08,12,05,41,12.80
2014,08,12,05,42,12.80
2014,08,12,05,43,12.70
2014,08,12,05,44,12.70
2014,08,12,05,45,12.70
2014,08,12,05,46,12.70
2014,08,12,05,47,12.70
2014,08,12,05,48,12.70
2014,08,12,05,49,12.70
2014,08,12,05,50,12.70
2014,08,12,05,51,12.70
2014,08,12,05,52,12.60
2014,08,12,05,53,12.50
2014,08,12,05,54,12.40
2014,08,12,05,55,12.40
2014,08,12,05,56,12.30
2014,08,12,05,57,12.20
2014,08,12,05,58,12.10
2014,08,12,05,59,12.10
2014,08,12,06,00,12.00
2014,08,12,06,01,11.90
2014,08,12,06,02,11.90
2014,08,12,06,03,11.80
2014,08,12,06,04,11.80
2014,08,12,06,05,11.80
2014,08,12,06,06,11.80
2014,08,12,06,07,11.70
2014,08,12,06,08,11.70
2014,08,12,06,09,11.70
2014,08,12,06,10,11.70
2014,08,12,06,11,11.70
2014,08,12,06,12,11.70
2014,08,12,06,13,11.70
2014,08,12,06,14,11.70
2014,08,12,06,15,11.70
2014,08,12,06,16,11.70
2014,08,12,06,17,11.70
2014,08,12,06,18,11.70
2014,08,12,06,19,11.70
2014,08,12,06,20,11.70
2014,08,12,06,21,11.70
2014,08,12,06,22,11.70
2014,08,12,06,23,11.70
2014,08,12,06,24,11.70
2014,08,12,06,25,11.70
2014,08,12,06,26,11.70
2014,08,12,06,27,11.70
2014,08,12,06,28,11.70
2014,08,12,06,29,11.70
2014,08,12,06,30,11.70
2014,08,12,06,31,11.70
2014,08,12,06,32,11.80
2014,08,12,06,33,11.80
2014,08,12,06,34,11.80
2014,08,12,06,35,11.80
2014,08,12,06,36,11.80
2014,08,12,06,37,11.80
2014,08,12,06,38,11.80
2014,08,12,06,39,11.80
2014,08,12,06,40,11.80
2014,08,12,06,41,11.80
2014,08,12,06,42,11.90
2014,08,12,06,43,11.90
2014,08,12,06,44,11.90
2014,08,12,06,45,11.90
2014,08,12,06,46,11.90
2014,08,12,06,47,11.90
2014,08,12,06,48,11.90
2014,08,12,06,49,11.90
2014,08,12,06,50,11.90
2014,08,12,06,51,12.00
2014,08,12,06,52,12.00
2014,08,12,06,53,12.00
2014,08,12,06,54,12.00
2014,08,12,06,55,12.10
2014,08,12,06,56,12.10
2014,08,12,06,57,12.10
2014,08,12,06,58,12.10
2014,08,12,06,59,12.10
2014,08,12,07,00,12.10
2014,08,12,07,01,12.10
2014,08,12,07,02,12.10
2014,08,12,07,03,12.10
2014,08,12,07,04,12.10
2014,08,12,07,05,12.10
2014,08,12,07,06,12.10
2014,08,12,07,07,12.10
2014,08,12,07,08,12.10
2014,08,12,07,09,12.00
2014,08,12,07,10,12.00
2014,08,12,07,11,12.00
2014,08,12,07,12,12.00
2014,08,12,07,13,12.00
2014,08,12,07,14,11.90
2014,08,12,07,15,11.90
2014,08,12,07,16,11.90
2014,08,12,07,17,11.90
2014,08,12,07,18,12.00
2014,08,12,07,19,12.00
2014,08,12,07,20,12.00
2014,08,12,07,21,12.00
2014,08,12,07,22,12.10
2014,08,12,07,23,12.10
2014,08,12,07,24,12.10
2014,08,12,07,25,12.10
2014,08,12,07,26,12.10
2014,08,12,07,27,12.10
2014,08,12,07,28,12.10
2014,08,12,07,29,12.10
2014,08,12,07,30,12.10
2014,08,12,07,31,12.10
2014,08,12,07,32,12.20
2014,08,12,07,33,12.20
2014,08,12,07,34,12.20
2014,08,12,07,35,12.20
2014,08,12,07,36,12.20
2014,08,12,07,37,12.20
2014,08,12,07,38,12.20
2014,08,12,07,39,12.20
2014,08,12,07,40,12.20
2014,08,12,07,41,12.20
2014,08,12,07,42,12.20
2014,08,12,07,43,12.20
2014,08,12,07,44,12.10
2014,08,12,07,45,12.20
2014,08,12,07,46,12.20
2014,08,12,07,47,12.10
2014,08,12,07,48,12.10
2014,08,12,07,49,12.10
2014,08,12,07,50,12.10
2014,08,12,07,51,12.10
2014,08,12,07,52,12.10
2014,08,12,07,53,12.00
2014,08,12,07,54,12.10
2014,08,12,07,55,12.10
2014,08,12,07,56,12.10
2014,08,12,07,57,12.10
2014,08,12,07,58,12.10
2014,08,12,07,59,12.10
2014,08,12,08,00,12.10
2014,08,12,08,01,12.10
2014,08,12,08,02,12.00
2014,08,12,08,03,12.00
2014,08,12,08,04,12.00
2014,08,12,08,05,12.00
2014,08,12,08,06,12.00
2014,08,12,08,07,12.00
2014,08,12,08,08,12.00
2014,08,12,08,09,12.00
2014,08,12,08,10,12.00
2014,08,12,08,11,12.00
2014,08,12,08,12,12.00
2014,08,12,08,13,12.00
2014,08,12,08,14,12.00
2014,08,12,08,15,12.00
2014,08,12,08,16,12.00
2014,08,12,08,17,12.00
2014,08,12,08,18,12.00
2014,08,12,08,19,12.00
2014,08,12,08,20,12.00
2014,08,12,08,21,12.00
2014,08,12,08,22,12.00
2014,08,12,08,23,12.00
2014,08,12,08,24,12.00
2014,08,12,08,25,12.00
2014,08,12,08,26,12.00
2014,08,12,08,27,12.10
2014,08,12,08,28,12.10
2014,08,12,08,29,12.10
2014,08,12,08,30,12.20
2014,08,12,08,31,12.20
2014,08,12,08,32,12.20
2014,08,12,08,33,12.20
2014,08,12,08,34,12.30
2014,08,12,08,35,12.30
2014,08,12,08,36,12.30
2014,08,12,08,37,12.30
2014,08,12,08,38,12.30
2014,08,12,08,39,12.40
2014,08,12,08,40,12.40
2014,08,12,08,41,12.40
2014,08,12,08,42,12.50
2014,08,12,08,43,12.60
2014,08,12,08,44,12.60
2014,08,12,08,45,12.60
2014,08,12,08,46,12.70
2014,08,12,08,47,12.70
2014,08,12,08,48,12.70
2014,08,12,08,49,12.70
2014,08,12,08,50,12.70
2014,08,12,08,51,12.80
2014,08,12,08,52,12.80
2014,08,12,08,53,12.80
2014,08,12,08,54,12.80
2014,08,12,08,55,12.80
2014,08,12,08,56,12.80
2014,08,12,08,57,12.90
2014,08,12,08,58,12.90
2014,08,12,08,59,12.90
2014,08,12,09,00,12.90
2014,08,12,09,01,12.90
2014,08,12,09,02,12.90
2014,08,12,09,03,12.90
2014,08,12,09,04,12.90
2014,08,12,09,05,12.90
2014,08,12,09,06,12.90
2014,08,12,09,07,12.90
2014,08,12,09,08,12.80
2014,08,12,09,09,12.80
2014,08,12,09,10,12.80
2014,08,12,09,11,12.80
2014,08,12,09,12,12.90
2014,08,12,09,13,12.90
2014,08,12,09,14,12.90
2014,08,12,09,15,12.90
2014,08,12,09,16,12.90
2014,08,12,09,17,13.00
2014,08,12,09,18,13.00
2014,08,12,09,19,13.00
2014,08,12,09,20,13.10
2014,08,12,09,21,13.10
2014,08,12,09,22,13.10
2014,08,12,09,23,13.10
2014,08,12,09,24,13.20
2014,08,12,09,25,13.20
2014,08,12,09,26,13.20
2014,08,12,09,27,13.20
2014,08,12,09,28,13.30
2014,08,12,09,29,13.30
2014,08,12,09,30,13.30
2014,08,12,09,31,13.40
2014,08,12,09,32,13.40
2014,08,12,09,33,13.50
2014,08,12,09,34,13.50
2014,08,12,09,35,13.50
2014,08,12,09,36,13.60
2014,08,12,09,37,13.60
2014,08,12,09,38,13.60
2014,08,12,09,39,13.70
2014,08,12,09,40,13.70
2014,08,12,09,41,13.80
2014,08,12,09,42,13.80
2014,08,12,09,43,13.80
2014,08,12,09,44,13.90
2014,08,12,09,45,14.00
2014,08,12,09,46,14.00
2014,08,12,09,47,14.10
2014,08,12,09,48,14.20
2014,08,12,09,49,14.20
2014,08,12,09,50,14.30
2014,08,12,09,51,14.30
2014,08,12,09,52,14.30
2014,08,12,09,53,14.40
2014,08,12,09,54,14.40
2014,08,12,09,55,14.50
2014,08,12,09,56,14.50
2014,08,12,09,57,14.60
2014,08,12,09,58,14.60
2014,08,12,09,59,14.60
2014,08,12,10,00,14.60
2014,08,12,10,01,14.70
2014,08,12,10,02,14.70
2014,08,12,10,03,14.70
2014,08,12,10,04,14.70
2014,08,12,10,05,14.80
2014,08,12,10,06,14.80
2014,08,12,10,07,14.80
2014,08,12,10,08,14.90
2014,08,12,10,09,14.90
2014,08,12,10,10,14.90
2014,08,12,10,11,15.00
2014,08,12,10,12,15.00
2014,08,12,10,13,15.10
2014,08,12,10,14,15.20
2014,08,12,10,15,15.20
2014,08,12,10,16,15.30
2014,08,12,10,17,15.30
2014,08,12,10,18,15.30
2014,08,12,10,19,15.40
2014,08,12,10,20,15.40
2014,08,12,10,21,15.50
2014,08,12,10,22,15.60
2014,08,12,10,23,15.60
2014,08,12,10,24,15.60
2014,08,12,10,25,15.60
2014,08,12,10,26,15.60
2014,08,12,10,27,15.60
2014,08,12,10,28,15.70
2014,08,12,10,29,15.60
2014,08,12,10,30,15.60
2014,08,12,10,31,15.60
2014,08,12,10,32,15.60
2014,08,12,10,33,15.60
2014,08,12,10,34,15.60
2014,08,12,10,35,15.50
2014,08,12,10,36,15.50
2014,08,12,10,37,15.50
2014,08,12,10,38,15.40
2014,08,12,10,39,15.40
2014,08,12,10,40,15.40
2014,08,12,10,41,15.40
2014,08,12,10,42,15.40
2014,08,12,10,43,15.40
2014,08,12,10,44,15.40
2014,08,12,10,45,15.40
2014,08,12,10,46,15.40
2014,08,12,10,47,15.50
2014,08,12,10,48,15.50
2014,08,12,10,49,15.50
2014,08,12,10,50,15.60
2014,08,12,10,51,15.60
2014,08,12,10,52,15.60
2014,08,12,10,53,15.70
2014,08,12,10,54,15.70
2014,08,12,10,55,15.80
2014,08,12,10,56,15.80
2014,08,12,10,57,15.90
2014,08,12,10,58,15.90
2014,08,12,10,59,16.00
2014,08,12,11,00,16.00
2014,08,12,11,01,16.10
2014,08,12,11,02,16.10
2014,08,12,11,03,16.20
2014,08,12,11,04,16.20
2014,08,12,11,05,16.30
2014,08,12,11,06,16.30
2014,08,12,11,07,16.40
2014,08,12,11,08,16.40
2014,08,12,11,09,16.50
2014,08,12,11,10,16.60
2014,08,12,11,11,16.60
2014,08,12,11,12,16.60
2014,08,12,11,13,16.70
2014,08,12,11,14,16.70
2014,08,12,11,15,16.70
2014,08,12,11,16,16.70
2014,08,12,11,17,16.80
2014,08,12,11,18,16.80
2014,08,12,11,19,16.90
2014,08,12,11,20,16.90
2014,08,12,11,21,16.90
2014,08,12,11,22,17.00
2014,08,12,11,23,17.00
2014,08,12,11,24,17.10
2014,08,12,11,25,17.10
2014,08,12,11,26,17.10
2014,08,12,11,27,17.20
2014,08,12,11,28,17.20
2014,08,12,11,29,17.20
2014,08,12,11,30,17.30
2014,08,12,11,31,17.30
2014,08,12,11,32,17.40
2014,08,12,11,33,17.50
2014,08,12,11,34,17.50
2014,08,12,11,35,17.60
2014,08,12,11,36,17.60
2014,08,12,11,37,17.70
2014,08,12,11,38,17.80
2014,08,12,11,39,17.90
2014,08,12,11,40,17.90
2014,08,12,11,41,18.00
2014,08,12,11,42,18.00
2014,08,12,11,43,18.00
2014,08,12,11,44,18.00
2014,08,12,11,45,18.00
2014,08,12,11,46,18.10
2014,08,12,11,47,18.10
2014,08,12,11,48,18.10
2014,08,12,11,49,18.20
2014,08,12,11,50,18.30
2014,08,12,11,51,18.30
2014,08,12,11,52,18.40
2014,08,12,11,53,18.50
2014,08,12,11,54,18.60
2014,08,12,11,55,18.70
2014,08,12,11,56,18.80
2014,08,12,11,57,18.80
2014,08,12,11,58,18.90
2014,08,12,11,59,19.00
2014,08,12,12,00,19.00
2014,08,12,12,01,19.10
2014,08,12,12,02,19.10
2014,08,12,12,03,19.20
2014,08,12,12,04,19.20
2014,08,12,12,05,19.20
2014,08,12,12,06,19.20
2014,08,12,12,07,19.20
2014,08,12,12,08,19.10
2014,08,12,12,09,19.00
2014,08,12,12,10,19.00
2014,08,12,12,11,18.90
2014,08,12,12,12,18.80
2014,08,12,12,13,18.80
2014,08,12,12,14,18.70
2014,08,12,12,15,18.70
2014,08,12,12,16,18.70
2014,08,12,12,17,18.70
2014,08,12,12,18,18.70
2014,08,12,12,19,18.70
2014,08,12,12,20,18.70
2014,08,12,12,21,18.70
2014,08,12,12,22,18.70
2014,08,12,12,23,18.70
2014,08,12,12,24,18.80
2014,08,12,12,25,18.80
2014,08,12,12,26,18.80
2014,08,12,12,27,18.90
2014,08,12,12,28,18.90
2014,08,12,12,29,18.90
2014,08,12,12,30,19.00
2014,08,12,12,31,19.00
2014,08,12,12,32,19.10
2014,08,12,12,33,19.10
2014,08,12,12,34,19.10
2014,08,12,12,35,19.20
2014,08,12,12,36,19.20
2014,08,12,12,37,19.20
2014,08,12,12,38,19.30
2014,08,12,12,39,19.30
2014,08,12,12,40,19.40
2014,08,12,12,41,19.40
2014,08,12,12,42,19.40
2014,08,12,12,43,19.40
2014,08,12,12,44,19.40
2014,08,12,12,45,19.40
2014,08,12,12,46,19.40
2014,08,12,12,47,19.40
2014,08,12,12,48,19.40
2014,08,12,12,49,19.40
2014,08,12,12,50,19.40
2014,08,12,12,51,19.40
2014,08,12,12,52,19.40
2014,08,12,12,53,19.40
2014,08,12,12,54,19.30
2014,08,12,12,55,19.30
2014,08,12,12,56,19.20
2014,08,12,12,57,19.10
2014,08,12,12,58,19.10
2014,08,12,12,59,19.00
2014,08,12,13,00,18.80
2014,08,12,13,01,18.50
2014,08,12,13,02,18.30
2014,08,12,13,03,17.90
2014,08,12,13,04,17.70
2014,08,12,13,05,17.40
2014,08,12,13,06,17.20
2014,08,12,13,07,16.90
2014,08,12,13,08,16.70
2014,08,12,13,09,16.50
2014,08,12,13,10,16.30
2014,08,12,13,11,16.20
2014,08,12,13,12,16.10
2014,08,12,13,13,16.10
2014,08,12,13,14,16.00
2014,08,12,13,15,15.90
2014,08,12,13,16,15.90
2014,08,12,13,17,15.80
2014,08,12,13,18,15.80
2014,08,12,13,19,15.70
2014,08,12,13,20,15.60
2014,08,12,13,21,15.50
2014,08,12,13,22,15.40
2014,08,12,13,23,15.30
2014,08,12,13,24,15.20
2014,08,12,13,25,15.10
2014,08,12,13,26,15.10
2014,08,12,13,27,15.00
2014,08,12,13,28,14.90
2014,08,12,13,29,14.90
2014,08,12,13,30,14.80
2014,08,12,13,31,14.80
2014,08,12,13,32,14.80
2014,08,12,13,33,14.80
2014,08,12,13,34,14.80
2014,08,12,13,35,14.80
2014,08,12,13,36,14.80
2014,08,12,13,37,14.80
2014,08,12,13,38,14.80
2014,08,12,13,39,14.80
2014,08,12,13,40,14.90
2014,08,12,13,41,14.90
2014,08,12,13,42,14.90
2014,08,12,13,43,14.90
2014,08,12,13,44,15.00
2014,08,12,13,45,15.00
2014,08,12,13,46,15.10
2014,08,12,13,47,15.10
2014,08,12,13,48,15.10
2014,08,12,13,49,15.20
2014,08,12,13,50,15.20
2014,08,12,13,51,15.20
2014,08,12,13,52,15.20
2014,08,12,13,53,15.30
2014,08,12,13,54,15.30
2014,08,12,13,55,15.30
2014,08,12,13,56,15.40
2014,08,12,13,57,15.40
2014,08,12,13,58,15.40
2014,08,12,13,59,15.50
2014,08,12,14,00,15.50
2014,08,12,14,01,15.50
2014,08,12,14,02,15.60
2014,08,12,14,03,15.60
2014,08,12,14,04,15.50
2014,08,12,14,05,15.50
2014,08,12,14,06,15.40
2014,08,12,14,07,15.40
2014,08,12,14,08,15.40
2014,08,12,14,09,15.40
2014,08,12,14,10,15.40
2014,08,12,14,11,15.40
2014,08,12,14,12,15.40
2014,08,12,14,13,15.40
2014,08,12,14,14,15.40
2014,08,12,14,15,15.40
2014,08,12,14,16,15.50
2014,08,12,14,17,15.50
2014,08,12,14,18,15.60
2014,08,12,14,19,15.60
2014,08,12,14,20,15.60
2014,08,12,14,21,15.60
2014,08,12,14,22,15.60
2014,08,12,14,23,15.60
2014,08,12,14,24,15.60
2014,08,12,14,25,15.70
2014,08,12,14,26,15.70
2014,08,12,14,27,15.70
2014,08,12,14,28,15.70
2014,08,12,14,29,15.80
2014,08,12,14,30,15.80
2014,08,12,14,31,15.80
2014,08,12,14,32,15.80
2014,08,12,14,33,15.80
2014,08,12,14,34,15.90
2014,08,12,14,35,15.90
2014,08,12,14,36,15.90
2014,08,12,14,37,16.00
2014,08,12,14,38,16.00
2014,08,12,14,39,16.10
2014,08,12,14,40,16.10
2014,08,12,14,41,16.20
2014,08,12,14,42,16.20
2014,08,12,14,43,16.20
2014,08,12,14,44,16.30
2014,08,12,14,45,16.30
2014,08,12,14,46,16.30
2014,08,12,14,47,16.30
2014,08,12,14,48,16.30
2014,08,12,14,49,16.30
2014,08,12,14,50,16.40
2014,08,12,14,51,16.40
2014,08,12,14,52,16.40
2014,08,12,14,53,16.40
2014,08,12,14,54,16.40
2014,08,12,14,55,16.50
2014,08,12,14,56,16.50
2014,08,12,14,57,16.60
2014,08,12,14,58,16.60
2014,08,12,14,59,16.60
2014,08,12,15,00,16.70
2014,08,12,15,01,16.70
2014,08,12,15,02,16.70
2014,08,12,15,03,16.70
2014,08,12,15,04,16.70
2014,08,12,15,05,16.70
2014,08,12,15,06,16.70
2014,08,12,15,07,16.70
2014,08,12,15,08,16.70
2014,08,12,15,09,16.70
2014,08,12,15,10,16.70
2014,08,12,15,11,16.70
2014,08,12,15,12,16.70
2014,08,12,15,13,16.70
2014,08,12,15,14,16.80
2014,08,12,15,15,16.80
2014,08,12,15,16,16.80
2014,08,12,15,17,16.80
2014,08,12,15,18,16.80
2014,08,12,15,19,16.90
2014,08,12,15,20,16.90
2014,08,12,15,21,17.00
2014,08,12,15,22,17.00
2014,08,12,15,23,17.10
2014,08,12,15,24,17.10
2014,08,12,15,25,17.20
2014,08,12,15,26,17.20
2014,08,12,15,27,17.30
2014,08,12,15,28,17.30
2014,08,12,15,29,17.30
2014,08,12,15,30,17.40
2014,08,12,15,31,17.40
2014,08,12,15,32,17.50
2014,08,12,15,33,17.50
2014,08,12,15,34,17.50
2014,08,12,15,35,17.60
2014,08,12,15,36,17.60
2014,08,12,15,37,17.70
2014,08,12,15,38,17.70
2014,08,12,15,39,17.80
2014,08,12,15,40,17.80
2014,08,12,15,41,17.90
2014,08,12,15,42,17.90
2014,08,12,15,43,18.00
2014,08,12,15,44,18.00
2014,08,12,15,45,18.10
2014,08,12,15,46,18.10
2014,08,12,15,47,18.20
2014,08,12,15,48,18.30
2014,08,12,15,49,18.30
2014,08,12,15,50,18.40
2014,08,12,15,51,18.40
2014,08,12,15,52,18.50
2014,08,12,15,53,18.60
2014,08,12,15,54,18.60
2014,08,12,15,55,18.70
2014,08,12,15,56,18.70
2014,08,12,15,57,18.70
2014,08,12,15,58,18.80
2014,08,12,15,59,18.80
2014,08,12,16,00,18.80
2014,08,12,16,01,18.80
2014,08,12,16,02,18.90
2014,08,12,16,03,19.00
2014,08,12,16,04,19.00
2014,08,12,16,05,19.10
2014,08,12,16,06,19.20
2014,08,12,16,07,19.20
2014,08,12,16,08,19.30
2014,08,12,16,09,19.40
2014,08,12,16,10,19.60
2014,08,12,16,11,19.70
2014,08,12,16,12,19.90
2014,08,12,16,13,20.10
2014,08,12,16,14,20.20
2014,08,12,16,15,20.30
2014,08,12,16,16,20.40
2014,08,12,16,17,20.40
2014,08,12,16,18,20.40
2014,08,12,16,19,20.50
2014,08,12,16,20,20.60
2014,08,12,16,21,20.60
2014,08,12,16,22,20.60
2014,08,12,16,23,20.60
2014,08,12,16,24,20.60
2014,08,12,16,25,20.70
2014,08,12,16,26,20.70
2014,08,12,16,27,20.80
2014,08,12,16,28,20.90
2014,08,12,16,29,21.00
2014,08,12,16,30,21.10
2014,08,12,16,31,21.20
2014,08,12,16,32,21.30
2014,08,12,16,33,21.40
2014,08,12,16,34,21.40
2014,08,12,16,35,21.50
2014,08,12,16,36,21.60
2014,08,12,16,37,21.80
2014,08,12,16,38,21.90
2014,08,12,16,39,22.00
2014,08,12,16,40,22.20
2014,08,12,16,41,22.30
2014,08,12,16,42,22.40
2014,08,12,16,43,22.50
2014,08,12,16,44,22.60
2014,08,12,16,45,22.60
2014,08,12,16,46,22.70
2014,08,12,16,47,22.80
2014,08,12,16,48,22.80
2014,08,12,16,49,22.90
2014,08,12,16,50,23.00
2014,08,12,16,51,23.10
2014,08,12,16,52,23.10
2014,08,12,16,53,23.20
2014,08,12,16,54,23.30
2014,08,12,16,55,23.30
2014,08,12,16,56,23.30
2014,08,12,16,57,23.40
2014,08,12,16,58,23.50
2014,08,12,16,59,23.50
2014,08,12,17,00,23.60
2014,08,12,17,01,23.60
2014,08,12,17,02,23.60
2014,08,12,17,03,23.70
2014,08,12,17,04,23.70
2014,08,12,17,05,23.70
2014,08,12,17,06,23.70
2014,08,12,17,07,23.70
2014,08,12,17,08,23.70
2014,08,12,17,09,23.70
2014,08,12,17,10,23.70
2014,08,12,17,11,23.80
2014,08,12,17,12,23.80
2014,08,12,17,13,23.80
2014,08,12,17,14,23.80
2014,08,12,17,15,23.80
2014,08,12,17,16,23.90
2014,08,12,17,17,23.90
2014,08,12,17,18,23.90
2014,08,12,17,19,23.90